Other Surface Observations
Issued by NWS Charleston, SC

Home | Current Version | Previous Version | Text Only | Print | Product List | Glossary On
Versions: 1 2 3 4 5 6 7 8 9 10 11 12 13 14 15 16 17 18 19 20 21 22 23 24 25 26 27 28 29 30 31 32 33 34 35 36 37 38 39 40 41 42 43 44 45 46 47 48 49 50
000
SXUS52 KCHS 190010
OSOCHS

MARINE OBSERVATIONS
NATIONAL WEATHER SERVICE CHARLESTON SC
800 PM EDT THU SEP 18 2014

...DOWNTOWN CHARLESTON AND HARBOR...

CITY           SKY/WX    TMP DP  RH WIND       PRES   REMARKS
WATERFRONT PRK   N/A     79 N/A N/A NE7         N/A
FORT JOHNSON   NOT AVBL

...LAKE MOULTRIE...

CITY           SKY/WX    TMP DP  RH WIND       PRES   REMARKS
PINOPOLIS        N/A     79  72  78 SE3       29.88R

...LAKE AND SUPPLEMENTAL COASTAL OBSERVATIONS...

STATION/POSITION TIME  TEMP    WIND        PRES    WAVE   SWELL
                       AIR SEA DIR/SP/G            HT/PER HT/PER/DIR
                 (UTC) (F)     (DEG/KT/KT) (MB)    (FT/S) (FT/S/D)
FORT PULASKI     0000   80     100/  3/  5 1013.9R
SAPELO ISLAND    2300   81     100/  3     1013.0S
UPR LAKE MARION  NOT AVBL
WINYAH BAY       2300   79      80/ 10     1014.0S
LAKE MURRAY      2300   79      CALM  /  2 1013.2S
ACE BASIN NERRS  2300   77      60/  6     1014.0R


...C-MAN AND BUOY OBSERVATIONS...

STATION/POSITION TIME  TEMP    WIND        PRES    WAVE   SWELL
                       AIR SEA DIR/SP/G            HT/PER HT/PER/DIR
                 (UTC) (F)     (DEG/KT/KT) (MB)    (FT/S) (FT/S/D)
BUOY 41004       0000   81 83   60/  8/ 12 1013.6R   3/10   3/10
BUOY 41008       0000   81 85  140/  6/  8 1013.4R   2/12   2/ 90/12
FOLLY BEACH CMAN 2300   80      70/  8/ 10 1014.1R
CAPERS NS BUOY   2300   80      80/ 10/ 12   N/A
FRIPP NS BUOY    NOT AVBL
5E ST. MARYS GA  0000      85                N/A     2/13   2/100/13
FRYING PAN BUOY  NOT AVBL
BUOY 41025       0000   72      20/ 17/ 21 1015.7R   5/ 6   3/ 90/11
CAPE LOOKOUT NC  2300   75      50/ 17/ 18 1015.6R
BUOY 41002       2247   79 83   40/  8/ 10 1014.2R   3/10   3/ 80/10
BUOY 41010       0000   83 85   50/  8/ 10 1013.1S   3/11   3/ 60/11
BUOY 41012       NOT AVBL
ST AUGUSTINE FL  0000   82     130/ 12/ 13 1013.6R


$$



USA.gov is the U.S. government's official web portal to all federal, state and local government web resources and services.